START_TIME,STEP,MOV.,M6,t_acc.,M7,t_acc.,M19,t_acc.,H36,t_acc.
1979-07-21 15:00:26.790 ,1,0,0.,12.0,0.,12.0,0.,12.0,0.,12.0
1979-07-21 15:00:38.790 ,1,0,0.,12.0,0.,12.0,0.,12.0,0.,12.0
1979-07-21 15:00:50.790 ,2,1,0.,12.0,0.,12.0,0.,12.0,0.,12.0
1979-07-21 15:01:02.790 ,2,1,0.,12.0,0.,12.0,0.,12.0,0.,12.0
1979-07-21 15:01:14.790 ,2,0,0.,12.0,0.,12.0,0.,12.0,0.,12.0
1979-07-21 15:01:26.790 ,2,0,0.,12.0,0.,12.0,0.,12.0,0.,12.0
1979-07-21 15:01:38.790 ,3,1,0.,12.0,0.,12.0,0.,12.0,0.,12.0
1979-07-21 15:01:50.790 ,3,1,0.,12.0,0.,12.0,0.,12.0,0.,12.0
1979-07-21 15:02:02.790 ,3,0,0.,12.0,0.,12.0,0.,12.0,0.,12.0
1979-07-21 15:02:14.790 ,3,0,0.,12.0,0.,12.0,0.,12.0,0.,12.0
1979-07-21 15:02:26.790 ,4,1,0.,12.0,0.,12.0,0.,12.0,0.,12.0
1979-07-21 15:02:38.790 ,4,1,0.,12.0,0.,12.0,0.,12.0,0.,12.0
1979-07-21 15:02:50.790 ,4,0,0.,12.0,0.,12.0,0.,12.0,0.,12.0
1979-07-21 15:03:02.790 ,4,0,0.,12.0,0.,12.0,0.,12.0,0.,12.0
1979-07-21 15:03:14.790 ,5,1,1.,12.0,0.,12.0,0.,12.0,0.,12.0
1979-07-21 15:03:26.790 ,5,1,0.,12.0,0.,12.0,0.,12.0,0.,12.0
1979-07-21 15:03:38.790 ,5,0,0.,12.0,0.,12.0,0.,12.0,0.,12.0
1979-07-21 15:03:50.790 ,5,0,0.,12.0,0.,12.0,0.,12.0,0.,12.0
1979-07-21 15:04:02.790 ,6,1,0.,12.0,0.,12.0,0.,12.0,0.,12.0
1979-07-21 15:04:14.790 ,6,1,0.,12.0,0.,12.0,0.,12.0,0.,12.0
1979-07-21 15:04:26.790 ,6,0,0.,12.0,0.,12.0,0.,12.0,0.,12.0
1979-07-21 15:04:38.790 ,6,0,0.,12.0,0.,12.0,0.,12.0,0.,12.0
1979-07-21 15:04:50.790 ,7,1,0.,12.0,0.,12.0,0.,12.0,0.,12.0
1979-07-21 15:05:02.790 ,7,1,0.,12.0,0.,12.0,0.,12.0,0.,12.0
1979-07-21 15:05:14.790 ,7,0,0.,12.0,0.,12.0,0.,12.0,0.,12.0
1979-07-21 15:05:26.790 ,7,0,0.,12.0,0.,12.0,0.,12.0,0.,12.0
1979-07-21 15:05:38.790 ,7,1,0.,12.0,0.,12.0,0.,12.0,0.,12.0
1979-07-21 15:05:50.790 ,7,1,0.,12.0,0.,12.0,0.,12.0,0.,12.0
1979-07-21 15:06:02.790 ,7,0,0.,12.0,0.,12.0,0.,12.0,0.,12.0
1979-07-21 15:06:14.790 ,7,0,0.,12.0,0.,12.0,0.,12.0,0.,12.0
1979-07-21 15:06:26.790 ,6,1,0.,12.0,0.,12.0,0.,12.0,0.,12.0
1979-07-21 15:06:38.790 ,6,1,0.,12.0,0.,12.0,0.,12.0,0.,12.0
1979-07-21 15:06:50.790 ,6,0,0.,12.0,0.,12.0,0.,12.0,0.,12.0
1979-07-21 15:07:02.790 ,6,0,0.,12.0,0.,12.0,0.,12.0,0.,12.0
1979-07-21 15:07:14.790 ,5,1,0.,12.0,0.,12.0,0.,12.0,0.,12.0
1979-07-21 15:07:26.790 ,5,1,0.,12.0,0.,12.0,0.,12.0,0.,12.0
1979-07-21 15:07:38.790 ,5,0,0.,12.0,0.,12.0,0.,12.0,0.,12.0
1979-07-21 15:07:50.790 ,5,0,0.,12.0,0.,12.0,0.,12.0,0.,12.0
1979-07-21 15:08:02.790 ,4,1,0.,12.0,0.,12.0,0.,12.0,0.,12.0
1979-07-21 15:08:14.790 ,4,1,0.,12.0,0.,12.0,0.,12.0,0.,12.0
1979-07-21 15:08:26.790 ,4,0,0.,12.0,0.,12.0,0.,12.0,0.,12.0
1979-07-21 15:08:38.790 ,4,0,0.,12.0,0.,12.0,0.,12.0,0.,12.0
1979-07-21 15:08:50.790 ,3,1,0.,12.0,0.,12.0,0.,12.0,0.,12.0
1979-07-21 15:09:02.790 ,3,1,0.,12.0,0.,12.0,0.,12.0,0.,12.0
1979-07-21 15:09:14.790 ,3,0,0.,12.0,0.,12.0,0.,12.0,0.,12.0
1979-07-21 15:09:26.790 ,3,0,0.,12.0,0.,12.0,0.,12.0,0.,12.0
1979-07-21 15:09:38.790 ,2,1,0.,12.0,0.,12.0,0.,12.0,0.,12.0
1979-07-21 15:09:50.790 ,2,1,0.,12.0,0.,12.0,0.,12.0,0.,12.0
1979-07-21 15:10:02.790 ,2,0,0.,12.0,0.,12.0,0.,12.0,0.,12.0
1979-07-21 15:10:14.790 ,2,0,0.,12.0,0.,12.0,0.,12.0,0.,12.0
1979-07-21 15:10:26.790 ,1,1,0.,12.0,0.,12.0,0.,12.0,0.,12.0
1979-07-21 15:10:38.790 ,1,1,0.,12.0,0.,12.0,0.,12.0,0.,12.0
1979-07-21 15:10:50.790 ,1,0,0.,12.0,0.,12.0,0.,12.0,0.,12.0
1979-07-21 15:11:02.790 ,1,0,0.,12.0,0.,12.0,0.,12.0,0.,12.0
1979-07-21 15:11:14.790 ,0,1,0.,12.0,0.,12.0,0.,12.0,0.,12.0
1979-07-21 15:11:26.790 ,0,1,0.,12.0,0.,12.0,0.,12.0,0.,12.0
1979-07-21 15:11:38.790 ,0,0,0.,12.0,0.,12.0,0.,12.0,0.,12.0
1979-07-21 15:11:50.790 ,0,0,0.,12.0,0.,12.0,0.,12.0,0.,12.0
1979-07-21 15:12:02.790 ,0,1,0.,12.0,0.,12.0,0.,12.0,0.,12.0
1979-07-21 15:12:14.790 ,0,1,0.,12.0,0.,12.0,0.,12.0,0.,12.0
1979-07-21 15:12:26.790 ,0,0,0.,12.0,0.,12.0,0.,12.0,0.,12.0
1979-07-21 15:12:38.790 ,0,0,0.,12.0,0.,12.0,0.,12.0,0.,12.0
1979-07-21 15:12:50.790 ,1,1,0.,12.0,0.,12.0,0.,12.0,0.,12.0
1979-07-21 15:13:02.790 ,1,1,0.,12.0,0.,12.0,0.,12.0,0.,12.0
1979-07-21 15:13:14.790 ,1,0,0.,12.0,0.,12.0,0.,12.0,0.,12.0
1979-07-21 15:13:26.790 ,1,0,0.,12.0,0.,12.0,0.,12.0,0.,12.0
1979-07-21 15:13:38.790 ,2,1,0.,12.0,0.,12.0,0.,12.0,0.,12.0
1979-07-21 15:13:50.790 ,2,1,0.,12.0,0.,12.0,0.,12.0,0.,12.0
1979-07-21 15:14:02.790 ,2,0,0.,12.0,0.,12.0,0.,12.0,0.,12.0
1979-07-21 15:14:14.790 ,2,0,0.,12.0,0.,12.0,0.,12.0,0.,12.0
1979-07-21 15:14:26.790 ,3,1,0.,12.0,0.,12.0,0.,12.0,0.,12.0
1979-07-21 15:14:38.790 ,3,1,0.,12.0,0.,12.0,0.,12.0,0.,12.0
1979-07-21 15:14:50.790 ,3,0,0.,12.0,0.,12.0,0.,12.0,0.,12.0
1979-07-21 15:15:02.790 ,3,0,0.,12.0,0.,12.0,0.,12.0,0.,12.0
1979-07-21 15:15:14.790 ,4,1,0.,12.0,0.,12.0,0.,12.0,0.,12.0
1979-07-21 15:15:26.790 ,4,1,0.,12.0,0.,12.0,0.,12.0,0.,12.0
1979-07-21 15:15:38.790 ,4,0,0.,12.0,0.,12.0,0.,12.0,0.,12.0
1979-07-21 15:15:50.790 ,4,0,0.,12.0,0.,12.0,0.,12.0,0.,12.0
1979-07-21 15:16:02.790 ,5,1,0.,12.0,0.,12.0,0.,12.0,0.,12.0
1979-07-21 15:16:14.790 ,5,1,0.,12.0,0.,12.0,0.,12.0,0.,12.0
1979-07-21 15:16:26.790 ,5,0,0.,12.0,0.,12.0,0.,12.0,0.,12.0
1979-07-21 15:16:38.790 ,5,0,0.,12.0,0.,12.0,0.,12.0,0.,12.0
1979-07-21 15:16:50.790 ,6,1,0.,12.0,0.,12.0,0.,12.0,0.,12.0
1979-07-21 15:17:02.790 ,6,1,0.,12.0,0.,12.0,0.,12.0,0.,12.0
1979-07-21 15:17:14.790 ,6,0,0.,12.0,0.,12.0,0.,12.0,0.,12.0
1979-07-21 15:17:26.790 ,6,0,0.,12.0,0.,12.0,0.,12.0,0.,12.0
1979-07-21 15:17:38.790 ,7,1,0.,12.0,0.,12.0,0.,12.0,0.,12.0
1979-07-21 15:17:50.790 ,7,1,0.,12.0,0.,12.0,0.,12.0,0.,12.0
1979-07-21 15:18:02.790 ,7,0,0.,12.0,0.,12.0,0.,12.0,0.,12.0
1979-07-21 15:18:14.790 ,7,0,0.,12.0,0.,12.0,0.,12.0,0.,12.0
1979-07-21 15:18:26.790 ,7,1,0.,12.0,0.,12.0,0.,12.0,0.,12.0
1979-07-21 15:18:38.790 ,7,1,0.,12.0,0.,12.0,0.,12.0,0.,12.0
1979-07-21 15:18:50.790 ,7,0,0.,12.0,0.,12.0,0.,12.0,0.,12.0
1979-07-21 15:19:02.790 ,7,0,0.,12.0,0.,12.0,0.,12.0,0.,12.0
1979-07-21 15:19:14.790 ,6,1,0.,12.0,0.,12.0,0.,12.0,0.,12.0
1979-07-21 15:19:26.790 ,6,1,0.,12.0,0.,12.0,0.,12.0,0.,12.0
1979-07-21 15:19:38.790 ,6,0,0.,12.0,0.,12.0,0.,12.0,0.,12.0
1979-07-21 15:19:50.790 ,6,0,0.,12.0,0.,12.0,0.,12.0,0.,12.0
1979-07-21 15:20:02.790 ,5,1,0.,12.0,0.,12.0,0.,12.0,0.,12.0
1979-07-21 15:20:14.790 ,5,1,0.,12.0,0.,12.0,0.,12.0,0.,12.0
1979-07-21 15:20:26.790 ,5,0,0.,12.0,0.,12.0,0.,12.0,0.,12.0
1979-07-21 15:20:38.790 ,5,0,0.,12.0,0.,12.0,0.,12.0,0.,12.0
1979-07-21 15:20:50.790 ,4,1,0.,12.0,0.,12.0,0.,12.0,0.,12.0
1979-07-21 15:21:02.790 ,4,1,0.,12.0,0.,12.0,0.,12.0,0.,12.0
1979-07-21 15:21:14.790 ,4,0,0.,12.0,0.,12.0,0.,12.0,0.,12.0
1979-07-21 15:21:26.790 ,4,0,0.,12.0,0.,12.0,0.,12.0,0.,12.0
1979-07-21 15:21:38.790 ,3,1,0.,12.0,0.,12.0,0.,12.0,0.,12.0
1979-07-21 15:21:50.790 ,3,1,0.,12.0,0.,12.0,0.,12.0,0.,12.0
1979-07-21 15:22:02.790 ,3,0,0.,12.0,0.,12.0,0.,12.0,0.,12.0
1979-07-21 15:22:14.790 ,3,0,0.,12.0,0.,12.0,0.,12.0,0.,12.0
1979-07-21 15:22:26.790 ,2,1,0.,12.0,0.,12.0,0.,12.0,0.,12.0
1979-07-21 15:22:38.790 ,2,1,0.,12.0,0.,12.0,0.,12.0,0.,12.0
1979-07-21 15:22:50.790 ,2,0,0.,12.0,0.,12.0,0.,12.0,0.,12.0
1979-07-21 15:23:02.790 ,2,0,0.,12.0,0.,12.0,0.,12.0,0.,12.0
1979-07-21 15:23:14.790 ,1,1,0.,12.0,0.,12.0,0.,12.0,0.,12.0
1979-07-21 15:23:26.790 ,1,1,0.,12.0,0.,12.0,0.,12.0,0.,12.0
1979-07-21 15:23:38.790 ,1,0,0.,12.0,0.,12.0,0.,12.0,0.,12.0
1979-07-21 15:23:50.790 ,1,0,0.,12.0,0.,12.0,0.,12.0,0.,12.0
1979-07-21 15:24:02.790 ,0,1,0.,12.0,0.,12.0,0.,12.0,0.,12.0
1979-07-21 15:24:14.790 ,0,1,0.,12.0,0.,12.0,0.,12.0,0.,12.0
1979-07-21 15:24:26.790 ,0,0,0.,12.0,0.,12.0,0.,12.0,0.,12.0
1979-07-21 15:24:38.790 ,0,0,0.,12.0,0.,12.0,0.,12.0,0.,12.0
1979-07-21 15:24:50.790 ,0,1,0.,12.0,0.,12.0,0.,12.0,0.,12.0
1979-07-21 15:25:02.790 ,0,1,0.,12.0,0.,12.0,0.,12.0,0.,12.0
1979-07-21 15:25:14.790 ,0,0,0.,12.0,0.,12.0,0.,12.0,0.,12.0
1979-07-21 15:25:26.790 ,0,0,0.,12.0,0.,12.0,0.,12.0,0.,12.0
1979-07-21 15:25:38.790 ,1,1,0.,12.0,0.,12.0,0.,12.0,0.,12.0
1979-07-21 15:25:50.790 ,1,1,0.,12.0,0.,12.0,0.,12.0,0.,12.0
1979-07-21 15:26:02.790 ,1,0,0.,12.0,0.,12.0,0.,12.0,0.,12.0
1979-07-21 15:26:14.790 ,1,0,0.,12.0,0.,12.0,0.,12.0,0.,12.0
1979-07-21 15:26:26.790 ,2,1,0.,12.0,0.,12.0,0.,12.0,0.,12.0
1979-07-21 15:26:38.790 ,2,1,0.,12.0,0.,12.0,0.,12.0,0.,12.0
1979-07-21 15:26:50.790 ,2,0,0.,12.0,0.,12.0,0.,12.0,0.,12.0
1979-07-21 15:27:02.790 ,2,0,0.,12.0,0.,12.0,0.,12.0,0.,12.0
1979-07-21 15:27:14.790 ,3,1,0.,12.0,0.,12.0,0.,12.0,0.,12.0
1979-07-21 15:27:26.790 ,3,1,0.,12.0,0.,12.0,0.,12.0,0.,12.0
1979-07-21 15:27:38.790 ,3,0,0.,12.0,0.,12.0,0.,12.0,0.,12.0
1979-07-21 15:27:50.790 ,3,0,0.,12.0,0.,12.0,0.,12.0,0.,12.0
1979-07-21 15:28:02.790 ,4,1,0.,12.0,0.,12.0,0.,12.0,0.,12.0
1979-07-21 15:28:14.790 ,4,1,0.,12.0,0.,12.0,0.,12.0,0.,12.0
1979-07-21 15:28:26.790 ,4,0,0.,12.0,0.,12.0,0.,12.0,0.,12.0
1979-07-21 15:28:38.790 ,4,0,0.,12.0,0.,12.0,0.,12.0,0.,12.0
1979-07-21 15:28:50.790 ,5,1,0.,12.0,0.,12.0,0.,12.0,0.,12.0
1979-07-21 15:29:02.790 ,5,1,0.,12.0,0.,12.0,0.,12.0,0.,12.0
1979-07-21 15:29:14.790 ,5,0,0.,12.0,0.,12.0,0.,12.0,0.,12.0
1979-07-21 15:29:26.790 ,5,0,0.,12.0,0.,12.0,0.,12.0,0.,12.0
1979-07-21 15:29:38.790 ,6,1,0.,12.0,0.,12.0,0.,12.0,0.,12.0
1979-07-21 15:29:50.790 ,6,1,0.,12.0,0.,12.0,0.,12.0,0.,12.0
1979-07-21 15:30:02.790 ,6,0,0.,12.0,0.,12.0,0.,12.0,0.,12.0
1979-07-21 15:30:14.790 ,6,0,0.,12.0,0.,12.0,0.,12.0,0.,12.0
1979-07-21 15:30:26.790 ,7,0,0.,12.0,0.,12.0,0.,12.0,0.,12.0
1979-07-21 15:30:38.790 ,7,0,0.,12.0,0.,12.0,0.,12.0,0.,12.0
1979-07-21 15:30:50.790 ,7,0,0.,12.0,0.,12.0,0.,12.0,0.,12.0
1979-07-21 15:31:02.790 ,7,0,0.,12.0,0.,12.0,0.,12.0,0.,12.0
1979-07-21 15:31:14.790 ,4,1,0.,12.0,0.,12.0,0.,12.0,0.,12.0
1979-07-21 15:31:26.790 ,4,1,0.,12.0,0.,12.0,0.,12.0,0.,12.0
1979-07-21 15:31:38.790 ,0,1,0.,12.0,0.,12.0,0.,12.0,0.,12.0
1979-07-21 15:31:50.790 ,0,1,0.,12.0,0.,12.0,0.,12.0,0.,12.0
1979-07-21 15:32:02.790 ,3,1,0.,12.0,0.,12.0,0.,12.0,0.,12.0
1979-07-21 15:32:14.790 ,3,1,0.,12.0,0.,12.0,0.,12.0,0.,12.0
1979-07-21 15:32:26.790 ,7,1,0.,12.0,0.,12.0,0.,12.0,0.,12.0
1979-07-21 15:32:38.790 ,7,1,0.,12.0,0.,12.0,0.,12.0,0.,12.0
1979-07-21 15:32:50.790 ,4,1,0.,12.0,0.,12.0,0.,12.0,0.,12.0
1979-07-21 15:33:02.790 ,4,1,0.,12.0,0.,12.0,0.,12.0,0.,12.0
1979-07-21 15:33:14.790 ,0,1,0.,12.0,0.,12.0,0.,12.0,0.,12.0
1979-07-21 15:33:26.790 ,0,1,0.,12.0,0.,12.0,0.,12.0,0.,12.0
1979-07-21 15:33:38.790 ,3,1,0.,12.0,0.,12.0,0.,12.0,0.,12.0
1979-07-21 15:33:50.790 ,3,1,0.,12.0,0.,12.0,0.,12.0,0.,12.0
1979-07-21 15:34:02.790 ,7,1,0.,12.0,0.,12.0,0.,12.0,0.,12.0
1979-07-21 15:34:14.790 ,7,1,0.,12.0,0.,12.0,0.,12.0,0.,12.0
1979-07-21 15:34:26.790 ,4,1,0.,12.0,0.,12.0,0.,12.0,0.,12.0
1979-07-21 15:34:38.790 ,4,1,0.,12.0,0.,12.0,0.,12.0,0.,12.0
1979-07-21 15:34:50.790 ,0,1,0.,12.0,0.,12.0,0.,12.0,0.,12.0
1979-07-21 15:35:02.790 ,0,1,0.,12.0,0.,12.0,0.,12.0,0.,12.0
1979-07-21 15:35:14.790 ,3,1,0.,12.0,0.,12.0,0.,12.0,0.,12.0
1979-07-21 15:35:26.790 ,3,1,0.,12.0,0.,12.0,0.,12.0,0.,12.0
1979-07-21 15:35:38.790 ,7,1,0.,12.0,0.,12.0,0.,12.0,0.,12.0
1979-07-21 15:35:50.790 ,7,1,0.,12.0,0.,12.0,0.,12.0,0.,12.0
1979-07-21 15:36:02.790 ,4,1,0.,12.0,0.,12.0,0.,12.0,0.,12.0
1979-07-21 15:36:14.790 ,4,1,0.,12.0,0.,12.0,0.,12.0,0.,12.0
1979-07-21 15:36:26.790 ,0,1,0.,12.0,0.,12.0,0.,12.0,0.,12.0
1979-07-21 15:36:38.790 ,0,1,0.,12.0,0.,12.0,0.,12.0,0.,12.0
1979-07-21 15:36:50.790 ,3,1,0.,12.0,0.,12.0,0.,12.0,0.,12.0
1979-07-21 15:37:02.790 ,3,1,0.,12.0,0.,12.0,0.,12.0,0.,12.0
1979-07-21 15:37:14.790 ,7,1,0.,12.0,0.,12.0,0.,12.0,0.,12.0
1979-07-21 15:37:26.790 ,7,1,0.,12.0,0.,12.0,0.,12.0,0.,12.0
1979-07-21 15:37:38.790 ,4,1,0.,12.0,0.,12.0,0.,12.0,0.,12.0
1979-07-21 15:37:50.790 ,4,1,0.,12.0,0.,12.0,0.,12.0,0.,12.0
1979-07-21 15:38:02.790 ,0,1,0.,12.0,0.,12.0,0.,12.0,0.,12.0
1979-07-21 15:38:14.790 ,0,1,0.,12.0,0.,12.0,0.,12.0,0.,12.0
1979-07-21 15:38:26.790 ,3,1,0.,12.0,0.,12.0,0.,12.0,0.,12.0
1979-07-21 15:38:38.790 ,3,1,0.,12.0,0.,12.0,0.,12.0,0.,12.0
1979-07-21 15:38:50.790 ,7,1,0.,12.0,0.,12.0,0.,12.0,0.,12.0
1979-07-21 15:39:02.790 ,7,1,0.,12.0,0.,12.0,0.,12.0,0.,12.0
1979-07-21 15:39:14.790 ,4,1,0.,12.0,0.,12.0,0.,12.0,0.,12.0
1979-07-21 15:39:26.790 ,4,1,0.,12.0,0.,12.0,0.,12.0,0.,12.0
1979-07-21 15:39:38.790 ,0,1,0.,12.0,0.,12.0,0.,12.0,0.,12.0
1979-07-21 15:39:50.790 ,0,1,0.,12.0,0.,12.0,0.,12.0,0.,12.0
1979-07-21 15:40:02.790 ,3,1,0.,12.0,0.,12.0,0.,12.0,0.,12.0
1979-07-21 15:40:14.790 ,3,1,0.,12.0,0.,12.0,0.,12.0,0.,12.0
1979-07-21 15:40:26.790 ,7,1,0.,12.0,0.,12.0,0.,12.0,0.,12.0
1979-07-21 15:40:38.790 ,7,1,0.,12.0,0.,12.0,0.,12.0,0.,12.0
1979-07-21 15:40:50.790 ,4,1,0.,12.0,0.,12.0,0.,12.0,0.,12.0
1979-07-21 15:41:02.790 ,4,1,0.,12.0,0.,12.0,0.,12.0,0.,12.0
1979-07-21 15:41:14.790 ,0,1,0.,12.0,0.,12.0,0.,12.0,0.,12.0
1979-07-21 15:41:26.790 ,0,1,0.,12.0,0.,12.0,0.,12.0,0.,12.0
1979-07-21 15:41:38.790 ,0,0,0.,12.0,0.,12.0,0.,12.0,0.,12.0
1979-07-21 15:41:50.790 ,0,0,0.,12.0,0.,12.0,0.,12.0,0.,12.0
1979-07-21 15:42:02.790 ,0,0,0.,12.0,0.,12.0,0.,12.0,0.,12.0
1979-07-21 15:42:14.790 ,0,0,0.,12.0,0.,12.0,0.,12.0,0.,12.0
1979-07-21 15:42:26.790 ,5,1,0.,12.0,0.,12.0,0.,12.0,0.,12.0
1979-07-21 15:42:38.790 ,5,1,0.,12.0,0.,12.0,0.,12.0,0.,12.0
1979-07-21 15:42:50.790 ,5,0,0.,12.0,0.,12.0,0.,12.0,0.,12.0
1979-07-21 15:43:02.790 ,5,0,0.,12.0,0.,12.0,0.,12.0,0.,12.0
1979-07-21 15:43:14.790 ,4,1,0.,12.0,0.,12.0,0.,12.0,0.,12.0
1979-07-21 15:43:26.790 ,4,1,0.,12.0,0.,12.0,0.,12.0,0.,12.0
1979-07-21 15:43:38.790 ,4,0,0.,12.0,0.,12.0,0.,12.0,0.,12.0
1979-07-21 15:43:50.790 ,4,0,0.,12.0,0.,12.0,0.,12.0,0.,12.0
1979-07-21 15:44:02.790 ,3,1,0.,12.0,0.,12.0,0.,12.0,0.,12.0
1979-07-21 15:44:14.790 ,3,1,0.,12.0,0.,12.0,0.,12.0,0.,12.0
1979-07-21 15:44:26.790 ,3,0,0.,12.0,0.,12.0,0.,12.0,0.,12.0
1979-07-21 15:44:38.790 ,3,0,0.,12.0,0.,12.0,0.,12.0,0.,12.0
1979-07-21 15:44:50.790 ,2,1,0.,12.0,0.,12.0,0.,12.0,0.,12.0
1979-07-21 15:45:02.790 ,2,1,0.,12.0,0.,12.0,0.,12.0,0.,12.0
1979-07-21 15:45:14.790 ,2,0,0.,12.0,0.,12.0,0.,12.0,0.,12.0
1979-07-21 15:45:26.790 ,2,0,0.,12.0,0.,12.0,0.,12.0,0.,12.0
1979-07-21 15:45:38.790 ,1,1,0.,12.0,0.,12.0,0.,12.0,0.,12.0
1979-07-21 15:45:50.790 ,1,1,0.,12.0,0.,12.0,0.,12.0,0.,12.0
1979-07-21 15:46:02.790 ,1,0,0.,12.0,0.,12.0,0.,12.0,0.,12.0
1979-07-21 15:46:14.790 ,1,0,0.,12.0,0.,12.0,0.,12.0,0.,12.0
1979-07-21 15:46:26.790 ,0,1,0.,12.0,0.,12.0,0.,12.0,0.,12.0
1979-07-21 15:46:38.790 ,0,1,0.,12.0,0.,12.0,0.,12.0,0.,12.0
1979-07-21 15:46:50.790 ,0,0,0.,12.0,0.,12.0,0.,12.0,0.,12.0
1979-07-21 15:47:02.790 ,0,0,0.,12.0,0.,12.0,0.,12.0,0.,12.0
1979-07-21 15:47:14.790 ,0,1,0.,12.0,0.,12.0,0.,12.0,0.,12.0
1979-07-21 15:47:26.790 ,0,1,0.,12.0,0.,12.0,0.,12.0,0.,12.0
1979-07-21 15:47:38.790 ,0,0,0.,12.0,0.,12.0,0.,12.0,0.,12.0
1979-07-21 15:47:50.790 ,0,0,0.,12.0,0.,12.0,0.,12.0,0.,12.0
1979-07-21 15:48:02.790 ,0,0,0.,12.0,0.,12.0,0.,12.0,0.,12.0
1979-07-21 15:48:14.790 ,0,0,,0,,0,,0,,0
1979-07-21 15:48:26.790 ,1,0,0.,12.0,0.,12.0,0.,12.0,0.,12.0
1979-07-21 15:48:38.790 ,1,0,0.,12.0,0.,12.0,0.,12.0,0.,12.0
1979-07-21 15:48:50.790 ,2,1,0.,12.0,0.,12.0,0.,12.0,0.,12.0
1979-07-21 15:49:02.790 ,2,1,0.,12.0,0.,12.0,0.,12.0,0.,12.0
1979-07-21 15:49:14.790 ,2,0,0.,12.0,0.,12.0,0.,12.0,0.,12.0
1979-07-21 15:49:26.790 ,2,0,0.,12.0,0.,12.0,0.,12.0,0.,12.0
1979-07-21 15:49:38.790 ,3,1,0.,12.0,0.,12.0,0.,12.0,0.,12.0
1979-07-21 15:49:50.790 ,3,1,0.,12.0,0.,12.0,0.,12.0,0.,12.0
1979-07-21 15:50:02.790 ,3,0,0.,12.0,0.,12.0,0.,12.0,0.,12.0
1979-07-21 15:50:14.790 ,3,0,0.,12.0,0.,12.0,0.,12.0,0.,12.0
1979-07-21 15:50:26.790 ,4,1,0.,12.0,0.,12.0,0.,12.0,0.,12.0
1979-07-21 15:50:38.790 ,4,1,0.,12.0,0.,12.0,0.,12.0,0.,12.0
1979-07-21 15:50:50.790 ,4,0,0.,12.0,0.,12.0,0.,12.0,0.,12.0
1979-07-21 15:51:02.790 ,4,0,0.,12.0,0.,12.0,0.,12.0,0.,12.0
1979-07-21 15:51:14.790 ,5,1,0.,12.0,0.,12.0,0.,12.0,0.,12.0
1979-07-21 15:51:26.790 ,5,1,0.,12.0,0.,12.0,0.,12.0,0.,12.0
1979-07-21 15:51:38.790 ,5,0,0.,12.0,0.,12.0,0.,12.0,0.,12.0
1979-07-21 15:51:50.790 ,5,0,0.,12.0,0.,12.0,0.,12.0,0.,12.0
1979-07-21 15:52:02.790 ,6,1,0.,12.0,0.,12.0,0.,12.0,0.,12.0
1979-07-21 15:52:14.790 ,6,1,0.,12.0,0.,12.0,0.,12.0,0.,12.0
1979-07-21 15:52:26.790 ,6,0,0.,12.0,0.,12.0,0.,12.0,0.,12.0
1979-07-21 15:52:38.790 ,6,0,0.,12.0,0.,12.0,0.,12.0,0.,12.0
1979-07-21 15:52:50.790 ,7,1,0.,12.0,0.,12.0,0.,12.0,0.,12.0
1979-07-21 15:53:02.790 ,7,1,0.,12.0,0.,12.0,0.,12.0,0.,12.0
1979-07-21 15:53:14.790 ,7,0,0.,12.0,0.,12.0,0.,12.0,0.,12.0
1979-07-21 15:53:26.790 ,7,0,0.,12.0,0.,12.0,0.,12.0,0.,12.0
1979-07-21 15:53:38.790 ,7,1,0.,12.0,0.,12.0,0.,12.0,0.,12.0
1979-07-21 15:53:50.790 ,7,1,0.,12.0,0.,12.0,0.,12.0,0.,12.0
1979-07-21 15:54:02.790 ,7,0,0.,12.0,0.,12.0,0.,12.0,0.,12.0
1979-07-21 15:54:14.790 ,7,0,0.,12.0,0.,12.0,0.,12.0,0.,12.0
1979-07-21 15:54:26.790 ,6,1,0.,12.0,0.,12.0,0.,12.0,0.,12.0
1979-07-21 15:54:38.790 ,6,1,0.,12.0,0.,12.0,0.,12.0,0.,12.0
1979-07-21 15:54:50.790 ,6,0,0.,12.0,0.,12.0,0.,12.0,0.,12.0
1979-07-21 15:55:02.790 ,6,0,0.,12.0,0.,12.0,0.,12.0,0.,12.0
1979-07-21 15:55:14.790 ,5,1,0.,12.0,0.,12.0,0.,12.0,0.,12.0
1979-07-21 15:55:26.790 ,5,1,0.,12.0,0.,12.0,0.,12.0,0.,12.0
1979-07-21 15:55:38.790 ,5,0,0.,12.0,0.,12.0,0.,12.0,0.,12.0
1979-07-21 15:55:50.790 ,5,0,0.,12.0,0.,12.0,0.,12.0,0.,12.0
1979-07-21 15:56:02.790 ,4,1,0.,12.0,0.,12.0,0.,12.0,0.,12.0
1979-07-21 15:56:14.790 ,4,1,0.,12.0,0.,12.0,0.,12.0,0.,12.0
1979-07-21 15:56:26.790 ,4,0,0.,12.0,0.,12.0,0.,12.0,0.,12.0
1979-07-21 15:56:38.790 ,4,0,0.,12.0,0.,12.0,0.,12.0,0.,12.0
1979-07-21 15:56:50.790 ,3,1,0.,12.0,0.,12.0,0.,12.0,0.,12.0
1979-07-21 15:57:02.790 ,3,1,1.,12.0,0.,12.0,0.,12.0,0.,12.0
1979-07-21 15:57:14.790 ,3,0,0.,12.0,0.,12.0,0.,12.0,0.,12.0
1979-07-21 15:57:26.790 ,3,0,0.,12.0,0.,12.0,0.,12.0,0.,12.0
1979-07-21 15:57:38.790 ,2,1,0.,12.0,0.,12.0,0.,12.0,0.,12.0
1979-07-21 15:57:50.790 ,2,1,0.,12.0,0.,12.0,0.,12.0,0.,12.0
1979-07-21 15:58:02.790 ,2,0,0.,12.0,0.,12.0,0.,12.0,0.,12.0
1979-07-21 15:58:14.790 ,2,0,0.,12.0,0.,12.0,0.,12.0,0.,12.0
1979-07-21 15:58:26.790 ,1,1,0.,12.0,0.,12.0,0.,12.0,0.,12.0
1979-07-21 15:58:38.790 ,1,1,0.,12.0,0.,12.0,0.,12.0,0.,12.0
1979-07-21 15:58:50.790 ,1,0,0.,12.0,0.,12.0,0.,12.0,0.,12.0
1979-07-21 15:59:02.790 ,1,0,0.,12.0,0.,12.0,0.,12.0,0.,12.0
1979-07-21 15:59:14.790 ,0,1,0.,12.0,0.,12.0,0.,12.0,0.,12.0
1979-07-21 15:59:26.790 ,0,1,0.,12.0,0.,12.0,0.,12.0,0.,12.0
1979-07-21 15:59:38.790 ,0,0,0.,12.0,0.,12.0,0.,12.0,0.,12.0
1979-07-21 15:59:50.790 ,0,0,0.,12.0,0.,12.0,0.,12.0,0.,12.0
1979-07-21 16:00:02.790 ,0,1,0.,12.0,0.,12.0,0.,12.0,0.,12.0
1979-07-21 16:00:14.790 ,0,1,0.,12.0,0.,12.0,0.,12.0,0.,12.0
1979-07-21 16:00:26.790 ,0,0,0.,12.0,0.,12.0,0.,12.0,0.,12.0
1979-07-21 16:00:38.790 ,0,0,,0,,0,,0,,0
1979-07-21 16:00:50.790 ,1,1,0.,12.0,0.,12.0,0.,12.0,0.,12.0
1979-07-21 16:01:02.790 ,1,1,0.,12.0,0.,12.0,0.,12.0,0.,12.0
1979-07-21 16:01:14.790 ,1,0,0.,12.0,0.,12.0,0.,12.0,0.,12.0
1979-07-21 16:01:26.790 ,1,0,0.,12.0,0.,12.0,0.,12.0,0.,12.0
1979-07-21 16:01:38.790 ,2,1,0.,12.0,0.,12.0,0.,12.0,0.,12.0
1979-07-21 16:01:50.790 ,2,1,0.,12.0,0.,12.0,0.,12.0,0.,12.0
1979-07-21 16:02:02.790 ,2,0,,0,,0,,0,,0
1979-07-21 16:02:14.790 ,2,0,0.,12.0,0.,12.0,0.,12.0,0.,12.0
1979-07-21 16:02:26.790 ,3,1,0.,12.0,0.,12.0,0.,12.0,0.,12.0
1979-07-21 16:02:38.790 ,3,1,0.,12.0,0.,12.0,0.,12.0,0.,12.0
1979-07-21 16:02:50.790 ,3,0,0.,12.0,0.,12.0,0.,12.0,0.,12.0
1979-07-21 16:03:02.790 ,3,0,0.,12.0,0.,12.0,0.,12.0,0.,12.0
1979-07-21 16:03:14.790 ,4,1,,0,,0,,0,,0
1979-07-21 16:03:26.790 ,4,1,1.,12.0,0.,12.0,0.,12.0,0.,12.0
1979-07-21 16:03:38.790 ,4,0,0.,12.0,0.,12.0,0.,12.0,0.,12.0
1979-07-21 16:03:50.790 ,4,0,0.,12.0,0.,12.0,0.,12.0,0.,12.0
1979-07-21 16:04:02.790 ,5,1,0.,12.0,0.,12.0,0.,12.0,0.,12.0
1979-07-21 16:04:14.790 ,5,1,0.,12.0,0.,12.0,0.,12.0,0.,12.0
1979-07-21 16:04:26.790 ,5,0,0.,12.0,0.,12.0,0.,12.0,0.,12.0
1979-07-21 16:04:38.790 ,5,0,0.,12.0,0.,12.0,0.,12.0,0.,12.0
1979-07-21 16:04:50.790 ,6,1,0.,12.0,0.,12.0,0.,12.0,0.,12.0
1979-07-21 16:05:02.790 ,6,1,0.,12.0,0.,12.0,0.,12.0,0.,12.0
1979-07-21 16:05:14.790 ,6,0,0.,12.0,0.,12.0,0.,12.0,0.,12.0
1979-07-21 16:05:26.790 ,6,0,0.,12.0,0.,12.0,0.,12.0,0.,12.0
1979-07-21 16:05:38.790 ,7,1,0.,12.0,0.,12.0,0.,12.0,0.,12.0
1979-07-21 16:05:50.790 ,7,1,0.,12.0,0.,12.0,0.,12.0,0.,12.0
1979-07-21 16:06:02.790 ,7,0,0.,12.0,0.,12.0,0.,12.0,0.,12.0
1979-07-21 16:06:14.790 ,7,0,0.,12.0,0.,12.0,0.,12.0,0.,12.0
1979-07-21 16:06:26.790 ,7,1,0.,12.0,0.,12.0,0.,12.0,0.,12.0
1979-07-21 16:06:38.790 ,7,1,0.,12.0,0.,12.0,0.,12.0,0.,12.0
1979-07-21 16:06:50.790 ,7,0,0.,12.0,0.,12.0,0.,12.0,0.,12.0
1979-07-21 16:07:02.790 ,7,0,0.,12.0,0.,12.0,0.,12.0,0.,12.0
1979-07-21 16:07:14.790 ,6,1,0.,12.0,0.,12.0,0.,12.0,0.,12.0
1979-07-21 16:07:26.790 ,6,1,0.,12.0,0.,12.0,0.,12.0,0.,12.0
1979-07-21 16:07:38.790 ,6,0,0.,12.0,0.,12.0,0.,12.0,0.,12.0
1979-07-21 16:07:50.790 ,6,0,0.,12.0,0.,12.0,0.,12.0,0.,12.0
1979-07-21 16:08:02.790 ,5,1,0.,12.0,0.,12.0,0.,12.0,0.,12.0
1979-07-21 16:08:14.790 ,5,1,0.,12.0,0.,12.0,0.,12.0,0.,12.0
1979-07-21 16:08:26.790 ,5,0,0.,12.0,0.,12.0,0.,12.0,0.,12.0
1979-07-21 16:08:38.790 ,5,0,0.,12.0,0.,12.0,0.,12.0,0.,12.0
1979-07-21 16:08:50.790 ,4,1,0.,12.0,0.,12.0,0.,12.0,0.,12.0
1979-07-21 16:09:02.790 ,4,1,0.,12.0,0.,12.0,0.,12.0,0.,12.0
1979-07-21 16:09:14.790 ,4,0,0.,12.0,0.,12.0,0.,12.0,0.,12.0
1979-07-21 16:09:26.790 ,4,0,0.,12.0,0.,12.0,0.,12.0,0.,12.0
1979-07-21 16:09:38.790 ,3,1,0.,12.0,0.,12.0,0.,12.0,0.,12.0
1979-07-21 16:09:50.790 ,3,1,0.,12.0,0.,12.0,0.,12.0,0.,12.0
1979-07-21 16:10:02.790 ,3,0,0.,12.0,0.,12.0,0.,12.0,0.,12.0
1979-07-21 16:10:14.790 ,3,0,0.,12.0,0.,12.0,0.,12.0,0.,12.0
1979-07-21 16:10:26.790 ,2,1,0.,12.0,0.,12.0,0.,12.0,0.,12.0
1979-07-21 16:10:38.790 ,2,1,0.,12.0,0.,12.0,0.,12.0,0.,12.0
1979-07-21 16:10:50.790 ,2,0,0.,12.0,0.,12.0,0.,12.0,0.,12.0
1979-07-21 16:11:02.790 ,2,0,0.,12.0,0.,12.0,0.,12.0,0.,12.0
1979-07-21 16:11:14.790 ,1,1,0.,12.0,0.,12.0,0.,12.0,0.,12.0
1979-07-21 16:11:26.790 ,1,1,0.,12.0,0.,12.0,0.,12.0,0.,12.0
1979-07-21 16:11:38.790 ,1,0,0.,12.0,0.,12.0,0.,12.0,0.,12.0
1979-07-21 16:11:50.790 ,1,0,0.,12.0,0.,12.0,0.,12.0,0.,12.0
1979-07-21 16:12:02.790 ,0,1,0.,12.0,0.,12.0,0.,12.0,0.,12.0
1979-07-21 16:12:14.790 ,0,1,0.,12.0,0.,12.0,0.,12.0,0.,12.0
1979-07-21 16:12:26.790 ,0,0,0.,12.0,0.,12.0,0.,12.0,0.,12.0
1979-07-21 16:12:38.790 ,0,0,0.,12.0,0.,12.0,0.,12.0,0.,12.0
1979-07-21 16:12:50.790 ,0,1,0.,12.0,0.,12.0,0.,12.0,0.,12.0
1979-07-21 16:13:02.790 ,0,1,0.,12.0,0.,12.0,0.,12.0,0.,12.0
1979-07-21 16:13:14.790 ,0,0,0.,12.0,0.,12.0,0.,12.0,0.,12.0
1979-07-21 16:13:26.790 ,0,0,0.,12.0,0.,12.0,0.,12.0,0.,12.0
1979-07-21 16:13:38.790 ,1,1,0.,12.0,0.,12.0,0.,12.0,0.,12.0
1979-07-21 16:13:50.790 ,1,1,0.,12.0,0.,12.0,0.,12.0,0.,12.0
1979-07-21 16:14:02.790 ,1,0,0.,12.0,0.,12.0,0.,12.0,0.,12.0
1979-07-21 16:14:14.790 ,1,0,0.,12.0,0.,12.0,0.,12.0,0.,12.0
1979-07-21 16:14:26.790 ,2,1,0.,12.0,0.,12.0,0.,12.0,0.,12.0
1979-07-21 16:14:38.790 ,2,1,0.,12.0,0.,12.0,0.,12.0,0.,12.0
1979-07-21 16:14:50.790 ,2,0,0.,12.0,0.,12.0,0.,12.0,0.,12.0
1979-07-21 16:15:02.790 ,2,0,0.,12.0,0.,12.0,0.,12.0,0.,12.0
1979-07-21 16:15:14.790 ,3,1,,0,,0,,0,,0
1979-07-21 16:15:26.790 ,3,1,0.,12.0,0.,12.0,0.,12.0,0.,12.0
1979-07-21 16:15:38.790 ,3,0,0.,12.0,0.,12.0,0.,12.0,0.,12.0
1979-07-21 16:15:50.790 ,3,0,0.,12.0,0.,12.0,0.,12.0,0.,12.0
1979-07-21 16:16:02.790 ,3,0,0.,12.0,0.,12.0,0.,12.0,0.,12.0
1979-07-21 16:16:14.790 ,3,0,,0,,0,,0,,0
1979-07-21 16:16:26.790 ,4,0,0.,12.0,0.,12.0,0.,12.0,0.,12.0
1979-07-21 16:16:38.790 ,4,0,0.,12.0,0.,12.0,0.,12.0,0.,12.0
1979-07-21 16:16:50.790 ,5,1,0.,12.0,0.,12.0,0.,12.0,0.,12.0
1979-07-21 16:17:02.790 ,5,1,0.,12.0,0.,12.0,0.,12.0,0.,12.0
1979-07-21 16:17:14.790 ,5,0,0.,12.0,0.,12.0,0.,12.0,0.,12.0
1979-07-21 16:17:26.790 ,5,0,0.,12.0,0.,12.0,0.,12.0,0.,12.0
1979-07-21 16:17:38.790 ,6,1,0.,12.0,0.,12.0,0.,12.0,0.,12.0
1979-07-21 16:17:50.790 ,6,1,0.,12.0,0.,12.0,0.,12.0,0.,12.0